Creston, IA

8:09 PM CST on February 21, 2017 (GMT -0600)
Creston Municipal

Weather History for KCSQ - April, 2013

Change the Weather History Date:

Friday, April 12, 2013

  Actual Average Record
Temperature  
Mean Temperature 36 °F -  
Max Temperature 39 °F 60 °F 82 °F (2014)
Min Temperature 32 °F 38 °F 12 °F (1957)
Degree Days  
Heating Degree Days 30    
Moisture  
Dew Point 28 °F    
Average Humidity 76    
Maximum Humidity 87    
Minimum Humidity 65    
Precipitation  
Precipitation 0.00 in - - ()
Sea Level Pressure  
Sea Level Pressure 29.83 in    
Wind  
Wind Speed 17 mph (WNW)    
Max Wind Speed 24 mph    
Max Gust Speed 29 mph    
Visibility 9 miles    
Events      
Averages and records for this station are not official NWS values.
T = Trace of Precipitation, MM = Missing Value Source: NWS Daily Summary

Daily Weather History Graph

Daily Weather History Graph

Search for Another Location

Airport or City:

Trip Planner

Search our weather history database for the weather conditions in past years. The results will help you decide how hot, cold, wet, or windy it might be!

Date:

Astronomy

Apr. 12, 2013 Rise Set
Actual Time 6:42 AM CDT 7:54 PM CDT
Civil Twilight 6:14 AM CDT 8:22 PM CDT
Nautical Twilight 5:40 AM CDT 8:56 PM CDT
Astronomical Twilight 5:04 AM CDT 9:32 PM CDT
Moon 7:51 AM CDT (4/12) 10:27 PM CDT (4/12)
Length of Visible Light 14h 08m
Length of Day
13h 11m
Waxing Crescent, 5% of the Moon is Illuminated
Apr 12
Waxing Crescent
Apr 18
First Quarter
Apr 25
Full
May 2
Last Quarter
May 9
New

Hourly Weather History & Observations

Time (CDT) Temp. Windchill Dew Point Humidity Pressure Visibility Wind Dir Wind Speed Gust Speed Precip Events Conditions
12:15 AM 33.8 °F 23.5 °F 28.4 °F 81% 29.66 in 10.0 mi West 16.1 mph - N/A   Overcast
12:35 AM 33.8 °F 23.2 °F 28.4 °F 81% 29.66 in 10.0 mi West 17.3 mph 24.2 mph N/A   Overcast
12:55 AM 33.8 °F 23.2 °F 28.4 °F 81% 29.66 in 10.0 mi West 17.3 mph - N/A   Overcast
1:15 AM 33.8 °F 24.3 °F 28.4 °F 81% 29.67 in 10.0 mi West 13.8 mph 20.7 mph N/A   Overcast
1:35 AM 33.8 °F 23.2 °F 28.4 °F 81% 29.67 in 10.0 mi West 17.3 mph 23.0 mph N/A   Overcast
1:55 AM 33.8 °F 23.5 °F 28.4 °F 81% 29.67 in 10.0 mi West 16.1 mph - N/A   Overcast
2:15 AM 33.8 °F 23.5 °F 28.4 °F 81% 29.68 in 10.0 mi West 16.1 mph - N/A   Overcast
2:35 AM 33.8 °F 23.2 °F 28.4 °F 81% 29.68 in 10.0 mi West 17.3 mph 24.2 mph N/A   Overcast
2:55 AM 33.8 °F 23.2 °F 28.4 °F 81% 29.68 in 10.0 mi West 17.3 mph - N/A   Overcast
3:15 AM 32.0 °F 20.5 °F 28.4 °F 87% 29.68 in 10.0 mi West 18.4 mph - N/A   Overcast
3:35 AM 32.0 °F 20.1 °F 28.4 °F 87% 29.68 in 10.0 mi West 19.6 mph 24.2 mph N/A   Overcast
3:55 AM 32.0 °F 21.2 °F 28.4 °F 87% 29.67 in 10.0 mi West 16.1 mph 21.9 mph N/A   Overcast
4:15 AM 32.0 °F 20.8 °F 28.4 °F 87% 29.68 in 10.0 mi West 17.3 mph 21.9 mph N/A   Overcast
4:35 AM 32.0 °F 20.5 °F 28.4 °F 87% 29.68 in 10.0 mi West 18.4 mph 23.0 mph N/A   Overcast
4:55 AM 33.8 °F 23.2 °F 28.4 °F 81% 29.69 in 7.0 mi West 17.3 mph - N/A   Overcast
5:15 AM 33.8 °F 23.2 °F 28.4 °F 81% 29.70 in 4.0 mi WNW 17.3 mph - N/A   Overcast
5:35 AM 33.8 °F 23.5 °F 28.4 °F 81% 29.70 in 4.0 mi West 16.1 mph - N/A   Overcast
5:55 AM 33.8 °F 23.5 °F 28.4 °F 81% 29.70 in 4.0 mi West 16.1 mph - N/A   Overcast
6:35 AM 33.8 °F 25.3 °F 30.2 °F 87% 29.71 in 7.0 mi West 11.5 mph - N/A   Overcast
6:55 AM 33.8 °F 23.5 °F 30.2 °F 87% 29.72 in 7.0 mi WNW 16.1 mph 21.9 mph N/A   Overcast
7:15 AM 33.8 °F 24.3 °F 30.2 °F 87% 29.73 in 7.0 mi West 13.8 mph - N/A   Overcast
7:35 AM 33.8 °F 23.9 °F 30.2 °F 87% 29.74 in 7.0 mi West 15.0 mph - N/A   Overcast
7:55 AM 33.8 °F 24.8 °F 30.2 °F 87% 29.75 in 7.0 mi West 12.7 mph - N/A   Overcast
8:15 AM 33.8 °F 23.9 °F 30.2 °F 87% 29.76 in 7.0 mi WNW 15.0 mph - N/A   Overcast
8:35 AM 33.8 °F 23.5 °F 30.2 °F 87% 29.77 in 10.0 mi WNW 16.1 mph 21.9 mph N/A   Overcast
8:55 AM 35.6 °F 27.1 °F 30.2 °F 81% 29.78 in 10.0 mi WNW 12.7 mph - N/A   Overcast
9:15 AM 35.6 °F 26.6 °F 30.2 °F 81% 29.79 in 10.0 mi West 13.8 mph - N/A   Overcast
9:55 AM 33.8 °F 23.2 °F 28.4 °F 81% 29.80 in 7.0 mi WNW 17.3 mph 23.0 mph N/A   Overcast
10:15 AM 35.6 °F 25.5 °F 28.4 °F 75% 29.81 in 10.0 mi WNW 17.3 mph 21.9 mph N/A   Overcast
10:35 AM 35.6 °F 24.2 °F 28.4 °F 75% 29.82 in 10.0 mi WNW 21.9 mph - N/A   Overcast
10:55 AM 35.6 °F 25.2 °F 28.4 °F 75% 29.83 in 10.0 mi NW 18.4 mph - N/A   Overcast
11:15 AM 35.6 °F 24.5 °F 28.4 °F 75% 29.84 in 10.0 mi WNW 20.7 mph 26.5 mph N/A   Overcast
11:35 AM 35.6 °F 25.5 °F 28.4 °F 75% 29.84 in 10.0 mi WNW 17.3 mph 26.5 mph N/A   Overcast
11:55 AM 35.6 °F 24.8 °F 28.4 °F 75% 29.85 in 10.0 mi WNW 19.6 mph 24.2 mph N/A   Overcast
12:15 PM 37.4 °F 28.2 °F 30.2 °F 75% 29.85 in 10.0 mi NW 16.1 mph 25.3 mph N/A   Overcast
12:35 PM 35.6 °F 25.5 °F 28.4 °F 75% 29.86 in 10.0 mi WNW 17.3 mph 28.8 mph N/A   Overcast
12:55 PM 37.4 °F 28.2 °F 30.2 °F 75% 29.86 in 10.0 mi WNW 16.1 mph - N/A   Overcast
1:15 PM 37.4 °F 27.5 °F 28.4 °F 70% 29.86 in 10.0 mi WNW 18.4 mph 23.0 mph N/A   Overcast
1:35 PM 37.4 °F 26.9 °F 28.4 °F 70% 29.86 in 10.0 mi West 20.7 mph - N/A   Overcast
1:55 PM 37.4 °F 27.5 °F 28.4 °F 70% 29.87 in 10.0 mi WNW 18.4 mph 24.2 mph N/A   Overcast
2:15 PM 37.4 °F 26.6 °F 26.6 °F 65% 29.87 in 10.0 mi WNW 21.9 mph 25.3 mph N/A   Overcast
2:35 PM 37.4 °F 26.4 °F 28.4 °F 70% 29.88 in 10.0 mi WNW 23.0 mph 27.6 mph N/A   Overcast
2:55 PM 37.4 °F 26.1 °F 26.6 °F 65% 29.89 in 10.0 mi WNW 24.2 mph 27.6 mph N/A   Overcast
3:15 PM 39.2 °F 29.3 °F 28.4 °F 65% 29.89 in 10.0 mi West 20.7 mph 26.5 mph N/A   Overcast
3:35 PM 37.4 °F 27.2 °F 28.4 °F 70% 29.89 in 10.0 mi WNW 19.6 mph 25.3 mph N/A   Overcast
3:55 PM 37.4 °F 27.8 °F 28.4 °F 70% 29.90 in 10.0 mi WNW 17.3 mph 23.0 mph N/A   Overcast
4:15 PM 39.2 °F 29.3 °F 28.4 °F 65% 29.90 in 10.0 mi WNW 20.7 mph 24.2 mph N/A   Overcast
4:35 PM 39.2 °F 30.2 °F 28.4 °F 65% 29.90 in 10.0 mi West 17.3 mph 26.5 mph N/A   Overcast
4:55 PM 39.2 °F 29.8 °F 28.4 °F 65% 29.90 in 10.0 mi West 18.4 mph 25.3 mph N/A   Overcast
5:15 PM 37.4 °F 27.8 °F 28.4 °F 70% 29.91 in 10.0 mi West 17.3 mph - N/A   Overcast
5:35 PM 37.4 °F 27.5 °F 28.4 °F 70% 29.91 in 10.0 mi West 18.4 mph 23.0 mph N/A   Overcast
5:55 PM 39.2 °F 30.2 °F 28.4 °F 65% 29.92 in 10.0 mi West 17.3 mph - N/A   Overcast
6:15 PM 39.2 °F 31.2 °F 28.4 °F 65% 29.92 in 10.0 mi West 13.8 mph - N/A   Overcast
6:35 PM 37.4 °F 29.3 °F 28.4 °F 70% 29.92 in 10.0 mi West 12.7 mph 21.9 mph N/A   Overcast
6:55 PM 37.4 °F 27.8 °F 28.4 °F 70% 29.92 in 10.0 mi WNW 17.3 mph - N/A   Overcast
7:15 PM 37.4 °F 28.2 °F 28.4 °F 70% 29.92 in 10.0 mi WNW 16.1 mph - N/A   Overcast
7:35 PM 37.4 °F 28.9 °F 28.4 °F 70% 29.92 in 10.0 mi WNW 13.8 mph - N/A   Overcast
7:55 PM 37.4 °F 28.9 °F 28.4 °F 70% 29.93 in 10.0 mi WNW 13.8 mph - N/A   Overcast
8:15 PM 35.6 °F 25.2 °F 28.4 °F 75% 29.93 in 10.0 mi WNW 18.4 mph 24.2 mph N/A   Overcast
8:35 PM 35.6 °F 25.5 °F 26.6 °F 70% 29.94 in 10.0 mi WNW 17.3 mph - N/A   Overcast
8:55 PM 35.6 °F 27.1 °F 26.6 °F 70% 29.94 in 10.0 mi WNW 12.7 mph 20.7 mph N/A   Overcast
9:15 PM 35.6 °F 27.5 °F 26.6 °F 70% 29.95 in 10.0 mi WNW 11.5 mph - N/A   Overcast
9:35 PM 35.6 °F 26.6 °F 26.6 °F 70% 29.96 in 10.0 mi WNW 13.8 mph - N/A   Overcast
9:55 PM 33.8 °F 23.5 °F 24.8 °F 70% 29.96 in 10.0 mi WNW 16.1 mph - N/A   Overcast
10:15 PM 33.8 °F 24.8 °F 24.8 °F 70% 29.97 in 10.0 mi WNW 12.7 mph - N/A   Overcast
10:35 PM 33.8 °F 26.4 °F 24.8 °F 70% 29.98 in 10.0 mi NW 9.2 mph - N/A   Overcast
10:55 PM 33.8 °F 24.3 °F 24.8 °F 70% 29.98 in 10.0 mi WNW 13.8 mph 19.6 mph N/A   Overcast
11:15 PM 33.8 °F 24.8 °F 24.8 °F 70% 29.98 in 10.0 mi WNW 12.7 mph - N/A   Overcast
11:35 PM 33.8 °F 26.4 °F 24.8 °F 70% 29.98 in 10.0 mi WNW 9.2 mph - N/A   Overcast
11:55 PM 33.8 °F 24.8 °F 24.8 °F 70% 29.98 in 10.0 mi WNW 12.7 mph - N/A   Overcast